"Pseudo-MPEC" for LA0CeOu

Created 2026 Jul 28 21:35:04 UT using Find_Orb

Click here for an explanation of pseudo-MPECs

 
 Astrometry: 
     LA0CeOu* C2026 07 25.68600921 08 10.284-04 20 26.59   ~7SG5 16.8 GVNEOCPP07
     LA0CeOu  C2026 07 25.75497221 05 07.222+03 12 33.80   ~7SG5x17.0 GVNEOCPP07
     LA0CeOu  C2026 07 25.79989021 02 55.135+08 40 43.28   ~7SG5x17.0 GVNEOCPP07
     LA0CeOu  C2026 07 25.84386521 00 37.366+14 23 10.21   ~7SG5x17.4 GVNEOCPP07
     LA0CeOu KC2026 07 28.85795109 51 49.171+69 55 24.56   ~7SLK 19.7 GWNEOCP151
     LA0CeOu KC2026 07 28.85934009 51 48.874+69 55 11.82   ~7SLK 19.8 GWNEOCP151
     LA0CeOu KC2026 07 28.86072909 51 48.326+69 54 53.64   ~7SLK 19.2 GWNEOCP151
     LA0CeOu KC2026 07 28.86211809 51 47.796+69 54 39.35   ~7SLK 19.3 GWNEOCP151
     LA0CeOu KC2026 07 28.86349509 51 47.477+69 54 24.91   ~7SLK 19.6 GWNEOCP151
     LA0CeOu KC2026 07 28.86488409 51 47.114+69 54 12.92   ~7SLK 20.0 GWNEOCP151

Station data:
(151) Eschenberg Observatory, Winterthur  (N47.476028 E8.744000)  Switzerland.
     Observer D. Luongo. 0.6-m f/3.8 Astrograph + CCD.
(P07) Space Surveillance Telescope, HEH Station  (S21.895685 E114.089870)
   Australia/WA.  Observers M. Blythe, R. Brungard, P. Festler, T. McVey, J.
   Paige, G. Spitz, L. Banks. Measurers M. Cornell, M. Kotson, R. Rios, J.
   Ruprecht, J. Vaillancourt, J. Varey, H. Viggh, D. Woods. 3.5-m f/1.0
   reflector + CCD.

Orbital elements:  LA0CeOu
   Perihelion 2026 Sep 9.996719 +/- 10.5 TT = 23:55:16.4 (JD 2461293.496719)
Epoch 2026 Jul 28.0 TT = JDT 2461249.5   Earth MOID: 0.0046   Ma: 0.0783
M 342.894536870 +/- 20              (J2000 ecliptic)             AutoNEOCP
n   0.388789520 +/- 0.316           Peri.   68.471776 +/- 6
a   1.859201019 +/- 0.607           Node   302.330223 +/- 0.027
e   0.57757885 +/- 0.236            Incl.   25.496507 +/- 7
P   2.535/925.933d         H 22.67  G  0.15   U 12.0
q 0.785365828 +/- 0.0387    Q 2.933036210 +/- 1.25
7 of 10 observations 2026 July 25-28; mean residual 94".24
Residuals in arcseconds: 
260725 P07  .69-  1.9+    260728 151 13.4+  143+    260728 151 13.4+  143+    
260725 P07( 202-  984+)   260728 151 14.1+  145+    260728 151 13.7+  146+    
260725 P07( 351- 1737+)   260728 151 13.5+  142+    
260725 P07( 506- 2525+)   260728 151 12.9+  142+    

Ephemerides (geocentric):
Date (UTC) HH   RA             Dec           delta  r     elong  mag " sig PA
---- --------  ------------   ------------  ------ ------ -----  --- --------
2026 07 28 22  09 51 53.295   +69 45 48.81  .03451 0.9946  52.3 20??  427  13
2026 07 28 23  09 51 37.024   +69 39 16.59  .03498 0.9943  52.2 20??  446  13
2026 07 29 00  09 51 21.337   +69 32 54.65  .03546 0.9939  52.1 20??  465  12
2026 07 29 01  09 51 06.200   +69 26 42.59  .03594 0.9936  52.0 20??  484  12
2026 07 29 02  09 50 51.586   +69 20 40.02  .03641 0.9933  51.9 20??  501  12
2026 07 29 03  09 50 37.467   +69 14 46.60  .03689 0.9929  51.8 20??  519  12
2026 07 29 04  09 50 23.818   +69 09 01.96  .03736 0.9926  51.7 20??  535  12
2026 07 29 05  09 50 10.615   +69 03 25.78  .03784 0.9923  51.6 20??  552  12
2026 07 29 06  09 49 57.836   +68 57 57.75  .03832 0.9919  51.6 21??  568  12
2026 07 29 07  09 49 45.460   +68 52 37.57  .03879 0.9916  51.5 21??  583  12
2026 07 29 08  09 49 33.467   +68 47 24.95  .03927 0.9912  51.4 21??  598  12
2026 07 29 09  09 49 21.841   +68 42 19.64  .03975 0.9909  51.3 21??  613  12
2026 07 29 10  09 49 10.563   +68 37 21.36  .04022 0.9906  51.2 21??  627  12
2026 07 29 11  09 48 59.618   +68 32 29.88  .04070 0.9902  51.2 21??  641  12
2026 07 29 12  09 48 48.990   +68 27 44.96  .04118 .98990  51.1 21??  655  11
2026 07 29 13  09 48 38.666   +68 23 06.37  .04165 .98957  51.0 21??  668  11
2026 07 29 14  09 48 28.633   +68 18 33.90  .04213 .98923  50.9 21??  681  11
2026 07 29 15  09 48 18.876   +68 14 07.35  .04261 .98890  50.9 21??  694  11
2026 07 29 16  09 48 09.386   +68 09 46.51  .04308 .98857  50.8 21??  706  11
2026 07 29 17  09 48 00.150   +68 05 31.21  .04356 .98823  50.7 21??  718  11
2026 07 29 18  09 47 51.158   +68 01 21.27  .04404 .98790  50.7 21??  730  11
2026 07 29 19  09 47 42.400   +67 57 16.50  .04451 .98756  50.6 21??  741  11
2026 07 29 20  09 47 33.867   +67 53 16.75  .04499 .98723  50.5 21??  753  11
2026 07 29 21  09 47 25.549   +67 49 21.86  .04547 .98690  50.5 21??  763  11
2026 07 29 22  09 47 17.438   +67 45 31.67  .04595 .98656  50.4 21??  774  11
2026 07 29 23  09 47 09.526   +67 41 46.05  .04642 .98623  50.4 21??  785  11
2026 07 30 00  09 47 01.806   +67 38 04.85  .04690 .98590  50.3 21??  795  11
2026 07 30 01  09 46 54.269   +67 34 27.93  .04738 .98556  50.2 21??  805  11
2026 07 30 02  09 46 46.910   +67 30 55.18  .04786 .98523  50.2 21??  815  11
2026 07 30 03  09 46 39.722   +67 27 26.46  .04834 .98490  50.1 21??  825  11
2026 07 30 04  09 46 32.697   +67 24 01.65  .04881 .98457  50.1 21??  834  11
2026 07 30 05  09 46 25.832   +67 20 40.65  .04929 .98423  50.0 21??  843  11
2026 07 30 06  09 46 19.119   +67 17 23.34  .04977 .98390  50.0 21??  852  11
2026 07 30 07  09 46 12.553   +67 14 09.61  .05025 .98357  49.9 21??  861  11
2026 07 30 08  09 46 06.129   +67 10 59.37  .05073 .98324  49.9 21??  870  11
2026 07 30 09  09 45 59.843   +67 07 52.52  .05120 .98290  49.8 21??  878  11
2026 07 30 10  09 45 53.689   +67 04 48.95  .05168 .98257  49.8 21??  887  10
2026 07 30 11  09 45 47.664   +67 01 48.59  .05216 .98224  49.7 21??  895  10
2026 07 30 12  09 45 41.762   +66 58 51.33  .05264 .98191  49.7 21??  903  10
2026 07 30 13  09 45 35.980   +66 55 57.11  .05312 .98158  49.6 21??  911  10
2026 07 30 14  09 45 30.314   +66 53 05.83  .05359 .98125  49.6 21??  918  10
2026 07 30 15  09 45 24.759   +66 50 17.41  .05407 .98092  49.6 21??  926  10
2026 07 30 16  09 45 19.313   +66 47 31.78  .05455 .98058  49.5 21??  933  10
2026 07 30 17  09 45 13.972   +66 44 48.87  .05503 .98025  49.5 21??  941  10
2026 07 30 18  09 45 08.733   +66 42 08.61  .05551 .97992  49.4 21??  948  10
2026 07 30 19  09 45 03.592   +66 39 30.92  .05599 .97959  49.4 21??  955  10
2026 07 30 20  09 44 58.547   +66 36 55.74  .05647 .97926  49.4 21??  962  10
2026 07 30 21  09 44 53.594   +66 34 23.00  .05694 .97893  49.3 21??  969  10